Simultaneous Nadir Overpasses (SNOs) Predictions

Prediction of SNOs between LANDSAT-8 and NPP Satellite Orbit:

Table of predicted SNOs for the next 14.0 days since TLE Epoch: 12/7/2013
Index Date (LANDSAT-8) Time (LANDSAT-8) Lat,Lon (LANDSAT-8) SZA (LANDSAT-8 ) Date (NPP) Time (NPP) Lat,Lon (NPP) SZA (NPP ) Distance(km) Time Diff (sec)
1 12/07/2013 22:27:02 -70.19, 20.13 87.22 12/07/2013 22:25:49 -70.19, 20.04 87.22 3.47 73
2 12/07/2013 23:16:29 70.07,-172.39 92.67 12/07/2013 23:16:33 70.06,-172.46 92.66 3.10 4
3 12/08/2013 00:06:00 -69.92, -4.98 87.49 12/08/2013 00:07:13 -69.87, -4.85 87.53 6.97 73
4 12/10/2013 14:43:31 -70.14, 135.94 87.01 12/10/2013 14:42:48 -70.14, 135.88 87.01 2.43 43
5 12/10/2013 15:32:58 70.02, -56.58 92.88 12/10/2013 15:33:32 70.01, -56.62 92.87 1.88 34
6 12/13/2013 06:10:23 70.55, 84.78 93.60 12/13/2013 06:09:13 70.60, 83.59 93.67 44.68 70
7 12/13/2013 07:00:00 -70.07,-108.28 86.88 12/13/2013 06:59:47 -70.10,-108.29 86.85 3.05 13
8 12/13/2013 07:49:27 69.95, 59.19 93.01 12/13/2013 07:50:31 69.97, 59.21 93.03 2.60 64
9 12/15/2013 22:26:58 70.12,-159.96 93.33 12/15/2013 22:26:04 70.15,-159.92 93.36 2.86 54
10 12/15/2013 23:16:28 -70.03, 7.54 86.77 12/15/2013 23:16:46 -70.06, 7.53 86.74 3.36 18
11 12/16/2013 00:06:09 69.13, 173.97 92.36 12/16/2013 00:07:15 69.14, 176.19 92.34 87.64 66
12 12/18/2013 14:43:24 70.11, -44.09 93.42 12/18/2013 14:43:02 70.11, -44.11 93.42 0.90 22
13 12/18/2013 15:32:54 -70.02, 123.41
